Theta_e
342 343 349 354 353 356 355 354 358 360 364 359 358 363 362 363 365 368 369 365 368 366 363 360 360 359 360 362 362 363 362 362 362 361 359 355 352 353 352 351 352 352 353 353 353 352 351 351 349 346 341 338 335 329 327 324 321 323 328 339 346 346 347 349 350 349 349 350 349 348 349 350 349 348 348 347 346 348 349 348 348 350 350 350 351 352 352 352 350 350 352 353 353 353 352 351 353
338 343 349 354 354 356 359 356 361 362 361 357 358 365 362 364 365 368 369 366 367 364 361 361 364 361 357 358 360 362 360 358 358 358 356 354 354 355 352 351 352 352 353 352 353 353 351 352 350 350 346 340 334 327 326 325 321 325 335 344 345 346 348 348 350 350 350 349 347 348 350 350 348 349 349 347 347 349 349 349 348 349 350 350 351 352 352 352 351 351 352 353 353 352 352 351 352
336 343 349 355 355 355 360 360 361 360 358 356 359 368 366 369 371 368 367 365 366 362 360 363 364 358 358 364 362 363 361 355 355 355 354 354 355 354 353 351 352 352 352 351 352 352 351 353 352 352 347 339 329 323 325 327 323 326 336 342 344 346 347 348 350 351 350 349 348 350 351 350 349 349 349 348 348 348 348 348 349 350 349 351 351 352 353 353 353 354 354 353 353 353 353 352 353
339 346 350 354 357 357 364 367 365 360 358 356 358 367 368 370 372 368 368 366 364 361 362 369 366 354 360 367 362 363 361 356 354 354 354 354 354 354 353 351 352 351 351 352 353 352 352 353 354 353 343 331 325 321 325 327 325 327 335 341 343 345 346 348 351 350 349 349 348 351 351 350 349 349 349 348 348 346 347 349 349 350 348 350 352 353 353 354 355 355 355 354 355 354 354 354 354
343 351 352 353 360 361 365 368 366 362 358 360 360 366 367 367 369 367 370 367 366 364 364 370 365 353 356 360 361 364 360 357 355 352 355 354 354 354 352 352 351 351 352 353 353 352 353 353 355 349 331 326 324 320 325 327 327 331 336 340 341 343 345 347 348 347 349 351 350 351 351 351 350 350 349 348 348 346 348 350 350 351 349 349 350 352 353 353 354 353 354 354 355 355 356 356 356
348 353 352 351 357 359 364 364 362 362 362 366 366 366 366 366 367 365 370 369 366 363 363 368 362 357 357 355 360 360 356 359 356 352 356 355 354 353 352 352 351 351 352 353 353 352 353 354 355 344 323 325 323 319 325 326 330 334 338 339 338 339 341 344 346 346 349 353 352 352 352 352 352 351 350 348 345 344 347 349 351 352 351 351 350 349 351 352 352 353 354 355 356 356 357 356 356
351 355 356 356 358 360 368 363 359 365 363 366 367 367 367 366 364 365 370 368 366 364 363 366 360 363 362 356 358 355 354 357 354 354 356 356 354 352 352 352 351 352 353 352 352 351 353 354 355 344 324 323 321 320 324 326 331 333 336 335 334 334 338 345 347 348 350 352 353 353 353 352 352 351 351 349 347 347 346 348 350 351 353 353 352 350 350 351 353 355 356 357 356 356 357 356 355
351 357 360 361 366 365 366 363 361 366 362 361 363 365 366 366 364 365 370 366 365 365 365 369 365 367 363 358 362 356 355 355 354 355 356 355 354 353 353 352 352 353 354 352 352 352 354 355 356 349 331 323 322 320 324 325 328 329 331 331 331 334 339 348 350 350 351 351 352 352 352 352 352 352 352 351 352 351 350 350 350 351 352 353 353 352 351 351 353 355 356 356 357 356 356 356 356
351 357 361 361 367 366 362 363 363 363 361 359 360 362 363 365 365 365 370 368 366 365 365 370 366 367 362 360 362 355 357 357 354 356 354 354 353 353 353 352 352 352 353 352 352 352 354 356 356 354 341 330 326 324 326 328 329 331 333 335 340 344 348 351 351 352 352 351 350 349 351 352 351 351 352 351 351 352 351 351 350 350 351 352 352 351 351 351 351 353 354 354 356 356 355 355 355
357 358 360 364 365 361 358 361 362 360 359 358 360 363 362 363 365 365 371 367 366 367 360 360 362 363 362 361 360 356 359 357 356 357 355 354 351 351 351 352 351 351 352 351 352 352 353 356 356 356 351 343 338 334 334 335 338 341 343 346 351 353 352 351 352 352 352 351 350 350 351 352 352 351 351 351 351 351 351 350 350 351 352 352 352 353 353 352 352 354 354 353 355 357 357 356 356
365 363 360 365 362 357 357 358 360 361 358 359 362 362 361 364 367 368 372 367 367 370 362 361 361 360 362 361 360 357 358 357 356 357 354 353 351 350 350 351 350 350 351 350 351 351 351 355 356 356 355 352 348 346 346 346 348 350 353 354 355 355 353 351 352 351 351 351 349 350 351 352 352 352 352 351 351 351 350 351 352 354 355 355 355 356 355 354 354 354 354 355 356 357 358 358 357
364 367 365 364 361 359 359 359 359 360 361 363 366 363 360 364 368 369 372 370 371 371 364 364 361 362 367 363 359 356 357 358 356 356 355 353 350 348 349 350 350 350 350 350 351 350 350 352 354 355 355 354 352 353 353 353 353 353 354 354 355 354 352 350 350 350 349 349 348 349 351 351 351 351 350 350 351 351 351 353 354 356 356 356 354 355 357 356 355 355 354 356 358 359 359 358 357
361 365 369 363 362 364 361 361 362 363 367 366 364 363 360 364 369 369 371 371 371 369 362 363 362 364 366 361 357 356 358 357 357 357 355 354 351 349 348 348 349 348 348 349 350 350 350 351 352 353 355 356 354 354 354 354 354 354 353 352 352 351 351 351 350 349 346 347 347 347 348 349 350 349 350 351 352 353 353 355 356 357 357 357 356 357 358 358 356 356 356 356 359 360 359 358 358
359 363 368 364 363 366 364 364 365 365 368 366 361 362 362 366 369 366 369 372 369 363 360 361 360 363 363 360 359 358 359 357 357 358 356 356 352 352 351 349 348 348 347 347 349 349 350 350 350 351 353 356 355 354 355 356 356 355 354 353 351 350 350 351 348 345 342 341 341 343 345 347 349 350 353 354 354 354 355 356 357 357 357 357 357 357 357 357 357 357 356 356 359 360 359 357 356
357 367 368 368 366 365 365 365 367 365 366 366 362 363 364 365 368 368 370 370 367 360 360 358 355 365 366 363 365 359 356 356 357 357 356 357 355 355 353 351 350 348 348 347 348 348 349 349 349 349 350 352 353 354 353 354 356 356 356 354 351 349 349 349 345 339 336 333 333 339 343 348 352 353 355 356 355 355 355 356 357 357 356 356 355 355 355 356 357 357 356 357 359 359 358 356 357
361 369 368 368 365 361 365 366 367 367 366 367 363 363 366 366 365 370 370 366 368 366 366 360 351 360 365 367 367 355 353 356 357 357 356 356 355 355 354 353 352 350 349 348 348 349 349 349 349 349 348 348 349 351 350 349 351 353 355 355 351 348 346 343 336 330 329 332 337 342 345 352 355 353 353 355 355 354 355 357 357 356 356 355 354 355 356 357 356 357 357 358 358 357 358 357 358
364 367 368 365 364 363 366 368 366 367 367 368 366 363 369 370 364 368 369 365 371 371 368 362 354 358 361 364 361 351 354 356 355 356 355 356 356 356 355 355 354 353 351 349 350 350 351 351 350 349 348 347 347 348 347 347 346 348 350 350 348 344 338 334 329 329 331 334 339 344 350 353 352 351 352 353 354 355 355 358 358 355 355 355 355 355 356 357 357 358 358 357 356 356 357 357 359
361 367 364 357 364 367 369 371 366 365 367 368 366 363 367 370 367 369 370 367 369 367 365 363 359 358 356 353 352 352 354 354 355 355 353 355 356 357 357 356 356 355 354 352 352 352 353 352 351 350 349 348 346 346 346 346 346 345 342 338 338 335 330 330 329 331 334 336 341 346 351 351 350 352 354 356 356 357 357 357 357 355 354 355 355 354 354 356 357 357 357 356 355 355 355 357 359
362 368 363 361 369 368 366 370 366 365 367 366 363 361 366 369 368 368 368 369 368 365 363 363 363 361 356 353 351 353 353 354 354 353 353 355 356 357 357 357 357 356 356 355 354 354 354 354 353 351 350 348 347 347 346 345 343 340 336 331 330 329 328 329 329 333 340 344 348 350 351 352 353 355 357 358 359 359 356 355 355 353 353 353 353 353 353 355 357 356 357 357 356 356 353 354 355
364 365 368 369 368 366 364 366 367 367 364 363 362 359 366 370 368 367 367 368 367 366 363 361 362 361 360 357 353 352 353 353 354 353 353 354 356 357 357 356 356 356 356 356 355 354 355 354 354 352 350 348 347 347 346 345 342 336 334 333 332 333 333 335 339 344 348 350 352 352 353 355 357 358 357 356 358 358 355 354 354 353 353 353 353 355 356 356 357 356 356 356 356 356 354 353 353
360 360 372 368 363 366 364 367 368 365 361 361 363 365 370 368 367 371 367 367 367 365 368 365 361 359 359 357 353 352 353 353 353 354 354 354 356 357 357 357 356 356 356 355 355 354 354 354 353 352 349 348 347 346 346 343 340 338 338 339 339 340 342 344 348 351 353 353 354 354 355 357 357 356 355 354 356 355 354 355 354 353 353 353 355 355 355 355 355 355 355 355 355 355 355 355 355
358 358 366 364 366 369 364 369 369 366 365 366 368 370 372 366 367 373 369 372 372 368 374 369 357 357 358 356 354 353 353 354 353 353 355 355 355 357 357 357 356 356 356 356 356 354 354 354 353 350 348 346 345 345 344 343 341 340 342 344 345 347 349 350 352 353 354 355 355 357 357 356 355 353 354 354 354 353 355 356 354 353 353 353 353 353 353 354 353 354 355 355 354 353 354 354 355
361 360 360 360 364 364 363 369 369 368 369 369 372 368 369 370 366 368 369 371 372 369 375 365 351 353 354 354 354 356 358 357 354 353 354 355 355 356 356 357 357 356 357 356 355 355 354 354 352 349 347 346 346 345 345 345 345 344 345 347 348 351 352 353 354 355 355 356 356 356 355 352 352 352 353 354 355 357 356 354 354 353 353 352 352 351 352 352 353 353 355 354 354 353 353 353 353
362 365 361 361 363 362 364 368 370 370 370 370 368 361 366 371 362 363 368 371 373 371 371 363 351 350 351 353 356 357 358 355 353 353 354 356 355 356 356 356 356 356 356 356 355 354 353 353 352 349 348 347 348 348 348 348 348 347 348 349 351 353 354 354 355 356 356 356 356 353 351 350 352 352 355 358 360 357 354 353 353 352 351 350 349 350 352 353 353 354 354 354 353 353 352 351 351
363 367 362 362 362 363 366 368 370 370 372 367 362 360 366 368 362 363 368 373 377 373 370 365 356 353 352 355 358 357 358 356 353 352 353 354 355 355 356 355 355 355 356 356 355 354 354 354 353 352 350 349 349 349 351 351 350 350 350 351 352 353 353 355 355 356 357 356 354 351 351 352 353 356 359 361 358 354 352 353 351 349 349 348 349 349 352 352 353 353 353 352 352 351 351 351 350
363 365 362 363 363 366 366 368 370 369 371 364 359 362 365 366 363 364 370 373 372 368 368 368 360 359 355 356 360 360 363 362 355 353 353 353 355 355 353 352 352 354 355 355 356 354 353 354 353 353 352 352 351 352 352 353 352 352 352 352 353 353 354 354 355 356 356 354 351 351 351 352 354 359 359 355 352 352 353 351 348 348 348 348 349 349 349 350 351 351 350 350 351 351 350 349 350
359 360 361 364 365 364 364 368 367 365 367 363 361 364 366 367 363 368 376 369 366 365 366 367 362 362 359 358 362 361 362 363 356 355 356 354 356 353 350 348 349 352 354 354 355 355 354 354 353 353 353 353 352 352 353 352 352 352 352 353 353 354 354 355 356 355 353 352 351 352 352 353 355 357 355 352 352 353 352 349 347 348 349 349 350 349 350 349 349 349 350 350 350 350 349 349 349
359 362 366 364 364 364 361 368 365 359 363 363 363 364 365 365 365 377 376 364 363 364 366 368 362 363 363 360 364 363 359 357 355 356 356 355 355 352 350 348 347 349 351 352 353 354 354 354 354 354 353 354 354 353 353 351 350 353 355 355 355 354 355 355 356 353 352 351 351 353 354 354 356 353 352 352 353 352 350 348 349 349 349 350 349 347 347 349 349 349 349 350 350 350 349 349 349
361 367 372 367 367 368 362 365 363 359 363 366 365 362 366 369 370 372 366 362 367 365 367 369 362 362 364 363 366 367 359 355 355 355 355 355 354 352 351 350 348 347 350 351 352 352 353 352 352 352 351 353 356 354 353 354 353 355 354 353 354 354 355 355 354 351 350 350 352 355 356 354 353 352 352 353 353 351 348 349 348 346 347 348 344 339 340 345 348 349 349 350 351 351 351 350 349
363 364 372 373 369 370 365 362 363 361 362 367 359 356 369 377 368 364 364 367 368 367 367 365 362 362 364 367 370 370 363 358 359 356 355 358 355 354 353 349 350 352 351 351 349 350 351 351 350 350 350 351 354 355 355 355 356 356 354 351 352 354 355 353 351 351 349 350 354 356 354 352 352 352 353 353 351 349 349 348 344 344 345 343 335 331 333 338 341 344 346 348 350 351 351 351 351
365 356 367 372 357 358 363 360 365 365 360 363 353 351 371 377 361 361 370 372 364 366 369 364 364 364 365 369 369 372 366 359 358 356 358 359 356 356 354 352 354 352 353 351 349 348 349 351 351 349 349 348 350 352 354 355 355 354 354 351 352 353 352 350 349 350 350 352 355 355 353 351 351 352 353 352 350 348 347 344 341 343 342 335 328 327 328 331 335 337 339 343 347 350 351 351 351
364 348 356 360 348 356 365 361 365 367 361 361 354 355 371 370 361 363 372 376 366 365 369 366 366 363 366 369 366 370 368 358 354 355 358 359 358 358 356 358 355 352 352 353 351 350 349 349 350 350 350 349 349 350 352 353 353 352 351 351 350 349 348 349 349 350 353 355 355 354 352 351 352 353 353 351 349 348 345 342 341 342 338 330 327 327 324 327 332 331 332 338 342 346 349 350 351
363 347 347 349 347 355 362 359 360 363 364 362 355 361 369 361 360 364 371 378 369 367 369 367 369 366 366 369 365 367 367 363 359 355 355 357 359 360 359 359 356 353 354 356 354 351 351 349 352 353 351 351 350 349 350 351 351 350 350 349 348 348 348 348 349 352 356 356 355 353 352 352 353 353 352 350 349 346 343 341 340 338 333 328 329 327 324 327 331 329 330 334 337 342 346 349 349
354 345 345 349 352 352 354 360 360 358 367 369 360 363 369 362 362 362 368 376 369 367 369 367 370 369 368 368 367 368 369 370 366 355 353 355 357 360 361 359 357 356 356 357 356 354 355 354 355 355 353 353 352 350 350 349 349 349 349 349 349 350 349 349 352 356 359 357 354 353 352 352 353 352 352 351 348 345 343 340 337 333 330 328 327 325 325 328 329 328 328 330 333 337 343 347 349
346 343 343 344 348 351 354 358 359 359 365 370 366 366 371 367 363 362 365 370 370 369 368 366 367 369 370 370 371 371 370 371 364 354 352 353 354 358 361 356 354 356 355 355 356 355 355 357 357 356 355 355 354 353 351 350 351 351 351 352 351 350 349 352 355 357 358 356 354 352 352 353 352 352 351 349 347 343 341 340 337 332 328 327 326 324 325 327 326 326 326 328 328 330 335 341 345
350 349 347 343 344 349 357 358 356 360 363 367 369 369 374 369 361 361 364 365 366 368 367 366 368 368 369 370 370 372 371 370 359 351 352 352 352 357 360 355 351 353 354 354 354 354 355 356 356 356 355 354 354 354 352 351 353 354 353 353 351 351 352 353 355 356 357 355 353 353 352 352 352 351 350 348 345 342 340 339 336 331 327 327 325 325 325 327 326 325 325 326 325 325 327 331 338
350 349 345 344 345 347 357 358 354 360 361 363 367 365 369 373 365 362 365 364 365 367 367 367 370 370 369 370 370 371 370 365 355 351 353 355 355 358 360 357 353 351 352 353 353 352 353 353 353 353 354 354 354 354 352 351 354 354 354 353 351 352 355 355 355 357 356 354 353 353 352 352 351 351 350 347 343 340 338 335 333 328 327 327 326 325 325 326 325 324 324 324 324 324 324 325 330
346 347 343 342 345 349 355 356 353 355 353 357 364 361 366 376 369 364 365 365 366 368 368 368 368 367 367 369 369 369 366 361 358 357 356 358 359 359 360 358 353 350 351 353 353 353 353 354 353 354 355 355 354 352 352 353 354 355 355 354 353 355 357 356 356 356 355 354 353 352 352 351 350 350 349 345 340 337 334 332 330 328 328 329 327 325 326 326 326 325 324 324 323 324 324 323 325
341 344 341 339 347 350 350 354 355 350 346 356 361 358 370 378 368 368 368 368 371 367 367 368 365 365 368 370 371 369 367 365 366 363 357 357 359 359 359 359 356 354 353 353 351 351 352 355 355 356 356 356 356 353 354 354 355 355 356 355 356 357 357 356 355 355 355 354 352 352 351 350 350 349 347 343 336 333 333 332 328 328 330 331 329 327 326 326 326 325 323 324 324 324 323 323 323
339 344 339 338 348 345 341 348 353 352 347 355 365 367 380 383 371 371 366 363 371 366 365 368 363 364 366 366 367 368 371 373 371 367 360 355 356 358 358 358 358 358 355 353 350 349 351 354 355 355 356 357 357 356 355 355 355 357 357 356 357 357 356 356 355 355 355 354 352 352 351 351 351 348 346 342 336 336 336 331 327 330 331 331 331 329 327 327 327 326 324 323 324 324 324 323 323
338 343 341 342 348 347 348 350 353 358 353 357 367 362 370 384 373 371 367 360 366 364 363 370 367 365 364 363 364 365 369 372 374 374 366 357 354 355 357 356 358 356 355 355 354 355 355 356 356 356 357 357 357 358 356 356 356 357 357 357 356 355 355 356 356 355 355 353 352 352 351 351 349 346 344 341 337 338 336 330 327 331 332 332 332 331 329 327 326 326 324 324 324 324 324 323 323
334 339 345 346 348 352 355 352 350 353 348 354 355 337 347 375 372 372 374 365 365 364 365 373 372 369 368 369 370 367 368 369 371 373 369 360 354 355 356 357 357 355 355 355 355 356 356 356 357 357 358 358 357 357 357 357 357 357 357 356 355 355 355 355 355 355 354 353 352 351 352 350 348 346 342 338 337 337 334 329 329 332 333 332 331 331 331 328 327 326 325 325 325 324 324 324 323
331 340 348 345 352 356 351 349 346 342 341 348 352 336 338 361 368 370 372 367 371 372 371 375 373 372 372 372 373 371 371 373 372 373 371 363 357 356 357 357 357 355 354 356 356 356 357 356 356 358 358 359 359 357 358 358 357 357 357 355 355 355 355 355 355 354 353 353 352 351 352 350 348 345 341 337 336 336 333 331 332 333 333 333 332 332 332 330 328 326 324 325 325 325 324 324 323
332 342 349 347 355 355 349 348 347 346 344 348 363 349 337 347 361 366 364 362 371 374 372 374 374 374 374 372 373 371 371 374 374 375 375 368 359 357 357 357 355 355 356 358 357 357 357 357 357 357 357 358 359 358 358 357 356 357 357 355 355 354 354 355 354 353 353 352 352 352 351 350 347 345 342 339 336 335 334 334 333 333 334 333 332 330 330 331 330 326 324 324 324 324 325 324 324
337 340 347 348 351 351 350 348 350 354 342 338 354 348 336 348 361 362 361 360 367 373 372 373 373 373 376 377 375 370 369 371 372 377 377 366 359 358 358 356 354 355 358 359 358 358 358 358 357 358 356 356 357 357 357 357 356 357 356 355 354 354 353 353 353 353 352 352 352 352 351 348 346 345 342 339 336 335 336 335 333 333 333 332 331 330 328 328 328 325 324 324 324 324 325 326 326
342 339 344 346 348 355 357 351 349 349 337 334 344 340 334 346 357 356 356 358 365 371 370 371 370 369 374 377 375 369 367 368 371 375 370 359 358 359 356 355 354 355 358 358 358 358 359 358 357 357 356 355 356 356 356 357 357 357 356 355 354 353 353 352 353 353 352 352 352 351 350 348 347 344 341 338 336 336 336 335 333 332 330 330 329 329 326 325 325 324 326 325 324 324 324 325 327
341 343 345 342 348 358 364 363 347 333 336 339 339 338 332 336 351 357 356 363 368 367 365 366 367 367 370 373 371 368 369 369 372 373 365 355 356 356 354 354 354 353 355 357 358 358 358 358 356 357 356 356 356 356 357 357 357 357 356 355 354 352 352 352 352 353 352 352 351 351 350 348 348 346 343 341 337 336 337 335 333 330 329 329 328 327 325 323 324 324 326 326 325 326 325 324 326
341 351 346 335 343 348 349 352 340 328 338 343 338 340 332 329 345 360 360 363 363 363 366 365 364 367 369 370 368 367 368 370 371 372 366 360 357 355 354 355 354 353 354 356 358 358 357 357 357 357 358 357 357 356 357 357 356 357 355 355 354 352 352 352 352 352 352 352 351 351 349 348 348 347 347 345 339 335 337 335 333 331 330 329 327 325 323 322 323 323 325 326 326 326 325 324 325
341 347 340 330 336 338 337 339 335 332 335 335 338 339 329 330 348 359 359 357 356 358 361 361 363 367 369 370 367 366 368 368 370 371 370 370 363 355 354 355 354 353 354 355 358 358 357 357 357 358 358 358 358 358 357 357 357 356 355 353 353 353 352 352 352 353 352 353 351 351 350 349 349 348 349 348 341 335 336 336 333 332 331 329 326 324 323 323 322 323 324 326 326 326 326 325 325
339 338 332 331 335 333 337 339 332 333 331 330 339 337 330 335 343 350 354 350 351 354 352 354 360 364 368 369 366 365 367 368 369 370 372 373 362 352 353 355 354 353 354 356 359 359 358 358 357 358 358 358 358 358 358 356 356 356 354 353 352 353 353 353 353 352 352 353 353 352 351 350 350 349 349 349 344 336 335 335 332 332 331 327 326 324 324 324 323 323 325 326 326 326 326 326 326
337 340 333 331 335 332 335 338 331 333 334 332 333 331 332 333 332 343 348 342 348 352 353 355 358 362 367 366 366 368 368 367 367 369 371 367 356 352 355 355 353 354 354 356 358 359 359 358 358 358 358 358 359 358 358 356 355 355 354 353 353 354 354 354 353 352 352 353 353 353 351 351 351 350 349 350 346 340 336 334 332 331 329 326 326 325 325 325 324 325 326 327 327 326 326 326 325
331 334 331 327 334 337 335 333 335 336 332 332 330 330 342 343 336 348 350 344 351 356 358 362 363 366 366 368 371 369 367 367 365 368 371 364 354 353 355 353 354 355 354 355 357 358 359 358 357 358 357 358 358 358 356 353 352 354 354 353 353 354 355 354 353 353 354 354 354 354 353 352 351 349 347 347 346 343 337 334 331 330 328 326 326 325 325 325 325 325 327 327 326 325 325 325 325
330 326 328 328 335 344 334 326 335 335 326 332 333 331 345 345 337 351 355 353 357 360 362 363 366 368 368 372 373 369 368 367 365 367 371 364 355 352 354 352 354 355 354 356 357 358 359 359 358 358 358 358 357 357 355 351 350 351 352 353 352 352 353 353 354 354 354 353 353 353 352 350 348 346 344 344 345 343 336 333 331 329 327 326 325 324 324 324 323 325 325 325 324 324 323 324 324
330 324 328 331 331 340 337 328 334 333 327 336 336 331 340 337 333 350 361 359 359 360 363 364 365 369 370 371 371 368 367 364 363 366 365 360 352 350 353 352 353 355 355 355 357 359 359 358 358 358 357 358 357 357 353 350 349 349 351 353 350 350 351 351 352 351 350 351 350 351 349 346 344 342 341 342 342 339 334 332 330 329 327 325 324 323 324 324 323 323 323 323 323 322 323 324 324
329 328 332 331 325 325 327 326 329 329 330 339 338 334 337 334 336 351 359 360 361 359 361 366 366 367 366 367 367 368 365 363 364 364 364 361 353 350 353 353 353 355 355 356 356 358 358 358 358 358 357 357 356 355 353 350 348 348 350 352 350 350 350 349 349 348 348 349 349 348 346 344 342 341 340 340 338 335 332 331 330 329 326 323 322 322 323 324 324 323 323 323 322 322 322 324 324
324 329 329 331 332 329 326 327 327 329 333 337 336 333 333 337 347 357 360 359 358 359 362 365 365 363 363 363 365 366 363 364 365 364 367 364 353 351 354 353 354 354 355 356 356 356 358 358 358 356 356 357 356 355 354 350 347 348 349 350 349 349 349 348 348 347 347 347 347 347 346 343 343 342 340 339 335 333 332 331 330 326 322 320 320 321 322 323 324 324 323 322 321 321 322 323 324
321 323 321 322 329 328 327 327 326 332 338 337 334 330 334 345 349 352 357 356 353 357 361 361 360 360 360 359 363 362 360 363 364 363 366 361 352 351 355 354 353 354 355 356 356 356 358 358 357 354 354 357 357 356 355 351 348 347 347 348 348 348 347 347 347 346 346 346 345 346 345 344 344 342 339 336 333 332 331 330 327 321 318 319 319 320 323 323 323 323 323 322 322 321 321 322 324
327 325 322 325 328 326 326 325 325 331 335 337 335 328 336 347 341 342 350 350 351 354 356 359 359 358 359 359 361 360 359 360 360 361 363 358 352 352 354 354 353 353 355 355 355 356 357 358 356 355 355 356 357 356 353 351 349 347 347 348 348 347 347 347 346 346 346 345 344 344 344 343 342 339 337 334 332 331 330 328 323 316 315 317 319 322 324 324 322 323 323 323 322 322 322 323 324
Wind_Speed
9 7 5 4 3 3 3 0 0 1 2 2 1 1 1 1 1 1 2 2 1 2 1 2 3 3 2 2 6 4 2 2 3 3 2 1 13 28 24 22 27 25 25 24 23 22 19 18 15 15 16 16 15 16 18 19 20 20 19 16 14 12 12 11 9 7 7 7 6 5 4 3 3 3 3 3 3 4 4 4 5 6 7 8 9 9 10 11 11 11 12 12 13 13 13 14 14
9 8 6 4 2 1 1 0 1 2 3 2 1 0 1 2 1 0 1 1 2 3 3 3 3 3 1 2 5 4 4 4 3 2 1 7 18 21 21 24 27 26 26 25 24 22 20 19 16 15 15 15 15 16 18 20 20 20 18 15 13 11 11 10 8 7 7 6 5 4 3 3 3 3 3 4 4 4 5 6 6 8 8 9 10 11 11 12 12 12 12 12 13 14 14 14 14
8 8 6 4 1 0 1 1 2 1 3 2 1 1 0 1 1 2 3 4 5 5 4 3 2 1 1 4 3 3 2 4 4 3 4 13 14 14 20 24 26 26 26 25 23 22 21 20 17 15 14 15 16 17 18 20 20 19 18 15 12 11 11 10 9 8 7 6 5 4 3 3 3 3 4 5 5 5 6 7 7 9 10 11 11 11 12 13 13 13 13 13 13 14 14 15 14
9 8 5 3 1 1 1 2 2 2 2 2 1 1 1 0 2 3 4 5 5 4 3 0 1 1 3 4 1 2 2 3 4 3 6 10 9 16 23 24 26 25 25 24 23 22 21 19 18 15 13 15 17 18 19 21 20 19 17 15 13 11 11 10 9 8 7 6 5 4 4 4 4 4 6 7 7 7 7 8 8 10 10 12 13 13 14 14 14 14 15 14 14 15 15 15 15
12 8 4 2 0 1 1 1 1 2 1 1 1 1 0 0 2 4 5 5 5 3 2 2 2 1 4 3 1 2 1 3 4 4 8 7 11 21 23 24 26 25 25 23 22 22 20 18 17 14 13 15 17 18 19 21 20 19 17 15 13 12 11 10 9 8 7 6 5 4 4 5 5 6 7 8 9 9 9 10 11 11 12 12 13 14 15 15 16 16 16 16 16 15 15 16 16
13 7 2 1 0 0 1 2 2 2 1 1 1 1 2 2 3 3 6 5 3 2 1 2 1 3 4 1 2 2 3 4 5 6 9 10 17 23 24 25 25 24 24 22 22 21 19 17 15 13 13 15 17 19 20 21 20 19 17 15 14 12 11 10 9 8 8 6 6 5 5 6 7 7 8 9 10 10 11 12 13 14 14 13 14 15 16 17 17 17 18 17 17 16 16 16 16
11 4 1 2 0 0 2 2 2 1 2 3 1 2 3 3 2 3 6 3 1 3 3 2 0 4 3 1 2 2 4 9 8 8 9 14 21 24 25 25 24 24 22 22 22 20 19 16 14 13 13 15 17 19 19 20 19 17 16 15 13 12 11 10 9 8 7 6 6 6 7 8 8 9 10 11 11 12 12 13 14 16 16 16 15 16 17 18 19 19 19 19 18 17 16 17 17
7 2 0 2 1 1 2 2 1 2 3 3 2 2 4 4 3 3 4 2 2 3 4 4 2 5 3 3 2 4 8 12 12 11 12 18 23 24 25 24 24 23 21 22 21 20 18 15 14 13 14 15 16 18 17 17 16 15 15 14 13 13 12 10 9 8 8 7 8 8 9 9 10 10 11 12 12 13 13 14 15 17 18 18 17 17 18 19 20 20 20 20 20 19 18 18 18
3 2 0 1 1 2 2 2 2 2 2 3 3 4 5 4 3 3 3 3 1 2 4 5 2 5 2 5 3 3 7 15 16 14 15 20 23 25 25 24 24 23 22 21 20 20 18 15 13 12 13 14 15 16 15 15 14 14 14 13 13 12 11 10 9 9 8 9 10 9 10 11 11 12 13 13 13 14 14 15 16 17 18 18 18 18 19 20 21 21 21 21 21 20 21 20 19
2 2 1 1 2 2 2 2 2 2 1 2 4 3 4 4 3 2 2 2 1 2 4 3 6 6 3 3 2 2 6 16 18 16 18 21 23 25 24 23 23 22 22 21 20 20 18 15 13 12 12 13 14 14 14 14 14 14 13 12 11 10 11 10 10 10 10 10 11 11 11 12 13 14 14 14 14 15 16 17 17 18 18 18 19 19 20 21 21 22 23 23 23 22 21 21 20
2 2 1 1 3 2 1 2 2 1 2 3 2 1 2 4 2 2 2 1 2 2 1 4 7 4 3 3 2 2 10 16 18 19 20 20 22 24 23 22 21 21 21 20 20 19 18 16 14 13 12 12 12 13 13 13 13 12 11 11 11 11 12 11 11 12 11 12 12 12 12 14 15 15 15 15 15 16 17 18 19 18 18 19 20 21 21 22 22 23 23 25 25 24 22 21 21
2 2 1 2 3 2 2 3 2 1 3 2 2 2 3 4 1 2 3 2 3 4 2 3 4 3 4 3 2 4 10 11 16 20 20 20 21 23 22 21 20 19 19 19 19 19 19 16 15 14 13 13 12 12 12 11 11 11 11 12 12 13 13 12 12 13 13 13 13 13 14 15 15 15 15 16 17 17 18 19 19 19 19 20 20 21 22 22 23 23 23 24 26 25 23 22 21
2 1 2 2 1 1 2 2 2 2 1 2 2 3 3 3 2 1 2 1 3 5 4 2 4 4 4 1 1 2 6 9 14 18 20 19 20 21 20 20 20 19 18 18 18 19 19 18 16 15 14 13 12 12 11 11 11 12 12 12 13 13 13 13 14 14 14 14 14 14 15 16 15 16 16 16 18 18 18 20 20 19 19 21 21 21 23 24 23 22 23 24 25 25 24 23 21
1 1 2 2 1 1 1 2 1 2 1 2 2 3 3 1 1 1 1 3 4 3 0 0 4 6 3 1 1 2 5 11 14 17 19 18 19 21 20 21 20 19 19 19 19 19 20 19 17 16 15 14 14 14 13 12 12 13 13 13 13 13 14 15 15 15 14 14 15 15 16 16 16 17 17 18 19 18 19 20 20 19 20 21 22 22 23 25 24 22 23 24 25 25 24 24 22
2 0 3 2 2 2 1 0 1 2 1 2 1 2 3 1 0 1 1 2 2 1 1 1 3 3 3 4 3 5 9 16 16 17 18 16 17 19 20 20 20 20 20 20 20 20 20 20 20 18 18 17 17 16 15 14 13 14 14 14 14 15 15 15 15 14 14 15 15 16 16 16 17 18 18 19 20 19 20 20 20 20 20 21 20 20 21 22 22 21 22 24 25 24 23 24 22
2 2 3 2 1 1 1 0 0 2 1 2 1 1 2 2 1 1 1 2 1 2 1 2 1 1 6 5 6 10 15 19 18 18 17 15 15 16 18 19 19 20 20 21 21 22 21 21 22 21 21 19 18 17 16 16 15 15 14 14 15 15 15 15 15 14 15 16 16 16 17 17 18 19 19 20 20 21 21 21 21 20 18 20 20 20 20 20 20 20 22 23 23 22 22 23 22
2 3 2 2 1 1 1 1 1 2 2 3 1 0 1 2 1 0 1 2 0 3 2 2 1 2 8 5 9 17 19 20 20 18 17 16 16 15 16 16 18 19 21 22 22 22 22 22 23 23 23 21 20 19 18 17 17 17 15 15 15 15 15 15 15 15 16 17 17 16 16 17 18 19 20 20 20 21 22 21 19 18 16 18 19 20 20 20 20 20 21 23 23 21 21 21 21
2 2 2 1 1 2 3 4 3 1 1 2 1 1 1 1 2 1 1 2 2 2 3 1 3 2 4 6 14 21 20 22 21 19 17 16 15 13 14 16 18 19 21 23 23 23 23 22 22 23 23 22 21 20 20 19 17 17 16 15 15 15 15 15 16 16 17 17 16 15 16 18 19 20 21 21 21 21 20 18 16 16 16 17 19 20 21 20 20 20 20 22 22 20 20 19 19
2 2 2 1 3 2 2 3 3 2 2 3 1 0 1 0 1 0 1 2 2 4 3 3 4 4 3 8 17 21 20 22 21 19 17 15 15 14 14 15 17 19 21 23 24 24 24 23 22 23 22 22 22 21 21 20 18 16 15 15 15 15 15 15 16 16 16 15 15 15 17 18 19 21 21 21 21 19 17 17 15 15 16 18 19 19 20 19 18 18 19 19 19 18 18 17 18
1 2 1 2 4 1 1 2 2 2 4 5 2 1 1 1 1 1 2 2 3 4 2 4 5 3 5 8 13 18 19 19 19 18 16 17 16 16 16 17 19 21 23 23 23 23 23 23 23 22 21 21 22 22 22 20 17 15 14 14 14 14 14 14 15 14 13 13 14 15 17 19 20 21 21 19 18 17 16 14 14 15 16 17 17 17 17 17 16 16 17 17 17 17 16 16 17
1 2 2 3 3 2 1 2 1 2 4 4 2 1 2 3 1 1 2 3 2 2 4 4 7 7 8 8 10 14 15 14 15 14 14 14 15 15 17 18 20 21 21 21 21 22 22 22 22 21 21 21 22 22 21 19 16 14 14 14 14 14 14 13 13 12 12 13 14 15 17 19 20 20 18 16 14 14 14 13 14 15 15 16 15 16 16 15 15 15 15 16 17 17 16 16 16
1 1 1 3 3 2 2 2 2 3 4 2 1 1 2 2 1 1 3 3 2 4 3 5 7 9 10 10 10 11 10 10 11 11 11 12 14 15 16 17 18 17 18 20 22 21 21 20 20 19 20 20 21 21 20 18 16 15 15 14 14 14 13 13 12 13 13 13 14 16 17 17 17 17 15 14 13 12 12 13 14 14 14 15 16 17 17 16 15 14 14 15 16 16 16 16 15
1 1 2 2 2 3 3 2 3 4 4 3 2 2 1 2 1 1 2 3 3 2 1 4 5 8 11 11 10 10 9 9 9 11 13 14 15 16 17 18 18 19 19 21 22 21 20 20 18 18 20 20 19 19 19 18 16 16 16 16 15 14 13 13 13 13 13 13 14 15 15 15 15 14 13 12 11 11 12 12 13 13 15 16 17 18 18 17 16 14 14 14 15 15 15 14 13
2 1 1 2 2 4 3 3 4 4 4 4 2 1 2 2 1 2 1 3 4 4 2 5 5 7 10 10 9 10 10 9 10 14 17 18 19 20 19 20 22 21 21 22 22 21 21 20 19 19 20 20 19 18 18 18 17 17 17 17 16 15 14 14 14 13 13 13 13 12 12 13 13 11 10 9 10 11 11 11 12 14 15 16 16 17 17 16 14 13 13 13 14 15 14 13 12
2 1 2 2 2 4 4 4 4 3 2 1 1 1 2 1 1 2 3 4 4 3 3 5 6 7 8 8 8 8 8 9 11 14 17 19 20 20 21 23 22 19 20 22 22 21 21 21 20 20 20 21 20 19 19 18 18 18 18 18 17 16 16 15 14 14 13 12 11 10 11 10 9 8 8 8 10 11 10 10 11 12 13 14 15 15 14 14 13 12 12 13 13 13 13 12 11
2 4 3 3 3 3 4 3 3 2 1 1 2 2 4 2 2 2 4 4 2 2 2 4 6 7 6 7 7 7 7 8 9 13 16 17 16 16 17 20 20 20 23 22 20 21 21 20 21 22 21 21 21 21 20 19 19 20 19 18 18 17 16 15 14 14 12 10 9 9 9 7 6 7 8 9 10 9 8 8 9 10 12 14 15 15 14 13 12 12 12 12 12 12 12 11 10
3 6 4 5 4 2 3 3 2 1 0 1 3 1 4 3 2 1 5 3 2 2 1 2 4 5 5 6 6 6 7 8 10 11 11 11 13 12 10 9 12 17 21 21 21 22 21 20 22 23 22 22 22 22 21 18 20 22 21 20 19 18 17 16 14 12 10 9 8 7 6 5 6 8 9 8 7 6 6 6 8 10 12 13 14 15 14 14 13 13 13 13 13 13 12 11 10
6 7 5 5 5 3 3 3 1 0 0 2 4 0 3 4 1 3 5 2 4 4 2 2 3 3 3 4 4 3 4 6 9 10 8 9 10 10 7 4 6 13 18 18 18 18 19 21 22 22 21 22 23 23 22 21 22 23 21 19 19 18 16 15 12 10 10 8 7 5 4 4 6 7 6 4 4 4 4 5 8 10 12 13 14 13 13 13 12 12 13 13 13 13 13 11 10
6 6 5 3 4 2 3 3 2 1 1 3 4 2 3 2 3 4 5 1 4 4 3 3 4 4 4 3 2 2 2 4 6 7 7 7 8 8 7 6 8 9 6 1 3 6 10 14 17 17 18 21 23 23 24 24 25 23 18 16 17 17 14 13 11 10 9 7 5 4 4 4 4 4 2 1 3 3 3 6 9 10 11 12 13 13 13 12 11 11 11 11 12 13 13 12 11
5 4 3 2 5 3 4 3 3 2 1 3 4 1 4 5 6 4 4 2 5 3 2 2 4 4 4 3 3 3 2 1 3 3 3 3 6 8 8 9 6 8 15 9 4 7 7 7 9 12 14 18 19 21 23 25 25 21 18 15 14 13 12 11 10 9 8 7 5 4 4 4 2 1 1 1 2 2 4 7 9 10 11 11 12 14 14 13 12 11 10 10 10 11 12 12 12
3 2 2 2 2 3 4 3 6 3 1 3 5 1 5 5 5 4 2 2 5 4 2 1 3 4 3 3 3 3 3 2 1 1 1 1 6 8 9 8 8 16 14 9 13 11 8 5 4 6 8 10 11 15 20 23 21 17 16 14 12 12 11 10 8 7 7 6 5 4 4 2 1 1 1 0 1 2 5 8 9 9 9 11 13 14 14 13 13 12 11 10 9 10 10 11 11
2 1 2 2 1 3 3 3 7 5 0 1 4 0 5 4 4 3 2 4 4 4 2 1 2 2 2 2 2 3 3 3 4 3 1 2 5 7 9 6 12 11 7 7 7 7 8 7 6 6 5 6 5 9 16 18 16 14 13 12 12 11 10 9 8 6 6 6 5 4 3 1 2 2 1 1 2 3 6 8 8 7 8 11 14 16 15 12 12 12 11 10 9 9 9 9 9
3 1 2 2 2 2 2 2 6 6 3 1 2 1 3 2 4 4 2 4 4 4 1 2 1 1 1 2 2 3 3 3 5 7 4 1 3 5 6 6 10 7 7 6 5 5 7 7 6 5 4 4 3 6 11 13 13 14 13 11 11 10 10 9 8 7 8 6 4 3 1 2 3 2 1 2 3 4 7 9 7 7 9 12 14 16 16 12 11 10 9 9 9 9 8 8 8
3 1 2 3 2 2 1 2 4 6 4 2 2 1 4 4 4 4 2 4 4 3 1 1 2 2 2 2 3 3 3 4 5 7 6 4 3 3 4 9 9 6 5 5 5 4 6 7 6 6 6 5 6 6 7 9 11 12 12 10 10 10 9 8 7 8 7 5 3 2 3 4 3 2 1 3 3 3 7 8 7 7 9 11 13 15 15 12 10 9 9 9 10 10 8 6 6
3 4 3 3 2 3 3 2 4 7 4 3 4 2 7 7 4 2 1 3 4 2 2 1 1 2 2 2 3 3 4 4 6 8 8 7 5 4 5 11 8 4 2 2 4 4 6 7 8 8 6 6 8 7 5 7 10 11 10 9 10 8 5 6 9 9 5 3 3 3 4 4 3 2 3 3 2 3 6 8 6 6 9 11 13 14 14 14 11 8 9 10 11 12 10 6 5
7 6 4 4 3 3 4 3 4 8 5 3 5 4 6 6 3 2 2 2 3 2 2 2 2 3 3 3 4 4 4 5 7 9 9 7 6 6 5 9 10 5 3 2 4 5 5 6 7 7 8 8 8 8 6 8 12 12 10 9 9 7 7 10 12 9 5 4 4 5 5 5 4 3 3 3 3 3 5 7 5 6 8 11 13 14 14 15 14 10 9 11 11 12 12 9 6
5 3 3 5 4 4 3 2 3 7 4 2 5 4 5 5 4 3 2 1 1 2 3 3 3 3 4 4 4 5 5 5 6 8 6 4 4 5 5 9 13 7 2 4 5 6 6 7 8 8 10 9 7 8 9 13 15 13 11 10 9 9 11 13 11 9 6 5 5 6 6 5 4 3 3 3 4 4 6 6 5 7 9 12 13 14 13 14 14 11 9 12 13 13 14 13 9
4 3 3 3 4 5 3 3 4 5 3 2 3 4 5 5 4 4 1 1 2 4 3 4 4 4 4 4 5 5 4 3 4 4 2 0 2 5 6 9 12 11 9 6 5 5 4 5 7 6 7 7 8 10 13 15 15 14 14 13 13 13 14 12 10 9 8 7 6 7 6 5 4 4 4 5 6 7 8 7 6 8 11 13 14 13 13 13 14 13 10 11 13 15 16 15 11
5 3 3 2 3 2 1 3 5 3 1 2 3 4 5 5 4 4 3 3 3 4 4 4 4 4 4 4 5 4 3 3 2 2 0 2 3 4 6 8 8 12 14 7 3 5 5 6 6 4 5 6 8 11 12 13 12 12 12 12 14 13 11 9 8 10 10 8 8 7 6 5 5 4 4 6 7 8 9 7 7 8 11 13 14 14 14 14 15 15 13 11 11 14 15 15 14
4 4 4 2 4 3 0 1 4 2 1 2 3 2 4 5 3 3 3 3 3 3 4 4 4 4 5 4 4 3 3 3 2 2 2 1 3 4 5 6 4 6 9 8 9 11 11 9 7 5 6 6 7 8 7 8 9 9 8 9 12 9 6 6 7 9 10 9 9 7 6 5 5 5 6 6 6 8 9 6 7 9 11 13 14 14 15 16 16 16 16 13 11 12 13 14 14
4 6 5 5 6 5 3 3 4 3 4 2 4 4 4 3 3 4 3 1 1 2 2 4 4 3 4 4 3 3 4 3 3 3 3 3 4 4 4 4 4 3 3 4 6 7 8 7 6 6 7 7 7 5 5 5 6 6 7 8 8 6 5 5 6 8 9 9 9 7 6 5 5 6 6 6 6 7 8 6 7 9 11 11 12 13 14 16 16 17 16 15 14 12 11 12 13
1 5 7 8 7 6 7 7 5 5 4 2 3 2 5 4 3 5 4 3 3 3 3 4 5 3 3 4 4 3 3 2 3 3 3 3 3 4 4 3 3 2 1 1 2 3 4 5 5 6 7 7 5 4 5 4 4 4 5 6 6 7 8 7 7 10 10 10 9 7 6 5 6 7 7 6 6 7 6 6 7 8 9 9 10 11 13 14 15 16 16 16 16 14 12 13 13
1 4 7 6 8 9 9 9 5 2 2 3 3 4 3 5 4 6 3 2 4 4 4 5 5 4 3 4 4 3 3 2 1 2 2 2 2 3 3 2 1 1 2 1 2 3 3 4 4 5 5 5 4 3 3 3 3 3 4 4 4 7 9 8 9 11 10 10 9 7 6 6 7 7 7 6 6 5 6 7 7 7 7 8 8 9 11 13 14 15 14 15 17 16 16 16 15
2 4 6 10 9 9 9 8 5 2 2 4 3 4 0 3 4 5 1 1 5 6 5 6 5 5 4 4 4 3 3 3 3 3 3 2 2 3 1 1 1 1 1 1 2 2 3 3 3 3 3 3 3 2 1 1 2 3 4 5 4 6 8 10 12 12 10 10 8 7 6 6 7 6 6 6 5 6 7 6 6 6 6 6 7 8 10 11 12 13 12 13 15 17 17 18 18
3 2 9 10 7 7 7 6 3 1 2 3 4 2 1 4 5 4 1 2 5 6 7 7 6 6 5 5 4 2 3 3 3 3 3 2 3 3 1 2 2 1 2 2 1 2 2 2 2 2 2 2 2 2 1 1 2 3 3 5 6 7 8 11 12 11 10 9 8 7 7 7 7 6 6 5 5 6 6 5 6 7 6 6 6 7 9 10 11 11 11 12 14 16 17 17 19
2 5 12 10 7 7 6 5 3 3 3 3 6 2 2 4 5 2 2 2 6 7 6 6 6 6 5 4 4 2 3 3 3 2 2 3 3 2 1 2 2 1 1 2 1 1 1 1 1 1 1 0 1 1 1 1 2 2 2 4 7 9 11 12 11 10 10 9 8 7 7 7 6 5 6 5 5 5 4 4 5 6 6 7 6 6 8 9 11 11 11 12 13 14 15 16 17
6 7 11 9 6 5 4 3 3 3 2 5 6 5 5 2 5 3 3 4 5 5 4 5 5 5 5 4 3 3 3 3 3 2 1 3 2 1 1 1 1 0 1 2 2 1 1 1 2 3 3 2 2 1 3 3 2 2 3 4 7 10 12 12 10 10 9 8 8 7 7 6 5 5 5 4 4 4 4 3 4 5 6 6 6 6 7 9 10 11 10 11 12 13 14 15 16
4 5 7 6 4 4 4 4 3 1 3 6 4 3 6 1 5 4 5 6 4 6 6 7 7 6 5 4 3 3 3 3 3 2 2 1 0 1 2 2 1 1 1 2 3 3 3 3 4 3 3 3 3 3 4 5 3 3 5 6 8 10 10 10 9 9 9 8 7 7 7 6 4 3 3 2 3 3 3 3 3 4 5 6 6 6 7 8 9 10 10 10 11 13 14 14 16
4 5 6 5 3 3 2 3 2 2 5 3 3 2 3 4 6 5 6 7 6 6 7 8 9 7 6 5 4 3 3 3 3 2 2 1 1 3 4 3 2 1 2 4 4 4 4 4 4 3 3 3 3 3 4 5 5 5 7 8 9 10 9 8 8 8 8 7 6 6 7 6 4 3 1 1 3 2 2 3 3 4 5 6 6 5 6 7 9 9 10 10 11 13 14 15 16
3 5 5 5 3 2 1 3 2 3 4 3 3 2 1 4 4 4 6 7 8 7 6 7 8 8 7 5 4 3 3 3 3 3 2 2 3 4 5 5 3 3 4 5 6 5 5 4 4 3 3 3 4 4 4 5 5 7 8 9 9 10 9 8 8 8 7 6 6 5 5 5 4 4 3 1 3 3 3 4 4 4 5 5 5 5 6 7 8 9 10 11 12 14 15 15 16
2 1 4 5 5 4 3 3 2 3 3 2 3 2 2 2 2 4 6 5 5 5 4 4 4 4 5 4 3 3 3 3 3 3 3 3 4 5 5 5 5 5 6 6 6 6 5 5 4 4 3 3 4 4 3 3 5 6 7 8 8 8 7 7 8 8 7 6 5 4 4 4 4 4 4 3 4 5 4 5 4 4 5 5 5 5 6 7 8 9 10 12 13 14 14 15 15
2 0 4 2 4 5 3 3 4 3 1 1 2 2 3 4 2 4 3 2 4 6 5 5 5 4 4 4 3 4 3 3 3 3 3 4 5 5 6 6 6 6 6 7 7 6 7 6 5 5 4 4 5 3 2 2 4 6 7 7 7 5 5 6 7 7 6 5 4 4 3 3 3 3 3 2 5 6 5 5 5 6 6 5 6 5 6 7 8 9 10 11 13 13 13 14 15
1 1 2 3 4 7 5 1 0 2 1 2 1 2 5 3 2 4 5 6 5 5 6 6 6 5 5 5 5 4 4 3 3 4 4 4 5 6 7 7 7 7 7 8 7 7 7 6 6 6 6 6 5 3 2 1 3 5 7 7 6 4 4 5 5 6 5 5 4 3 3 4 4 3 1 2 6 8 7 7 6 6 6 6 6 6 7 8 9 10 11 12 12 13 13 14 14
5 2 5 3 2 4 5 2 3 3 0 3 1 3 5 3 2 3 4 4 3 4 6 6 5 6 6 6 5 5 4 3 3 3 4 4 5 6 6 7 8 9 8 7 7 7 7 6 6 7 7 6 5 3 2 2 2 4 7 7 5 4 4 4 4 4 4 4 4 4 6 7 6 4 3 6 9 10 10 8 6 6 6 6 6 7 7 8 9 10 12 13 13 13 14 14 14
4 5 5 4 2 1 2 2 1 1 1 4 4 3 3 3 4 3 3 6 6 5 5 6 7 8 8 6 6 5 4 2 2 3 3 4 5 6 6 6 7 8 8 7 7 7 7 6 6 7 7 6 5 3 3 3 2 3 6 7 5 4 4 4 3 2 2 3 4 6 8 8 7 5 6 9 11 11 10 7 5 5 5 6 6 6 6 7 9 11 13 14 14 13 14 14 14
2 2 2 2 2 4 3 2 3 3 2 2 3 4 3 5 5 6 10 10 9 9 7 8 9 9 8 7 6 5 4 4 4 4 4 4 5 7 6 7 8 9 8 7 7 8 8 7 6 7 7 6 6 5 4 4 3 4 6 6 6 6 5 4 3 2 3 4 5 7 8 9 7 6 7 10 11 11 9 7 5 5 6 6 6 7 7 8 10 12 14 15 15 14 13 13 13
3 2 3 0 1 2 2 1 2 4 4 2 1 2 5 6 4 7 11 11 11 12 11 9 9 9 8 7 6 5 5 4 4 4 4 4 5 7 6 6 7 8 9 8 8 8 8 8 7 8 8 8 7 6 5 5 3 4 5 6 7 6 5 4 3 2 3 5 6 7 8 8 7 8 10 12 12 10 8 7 6 6 6 6 7 8 9 10 12 13 14 15 15 15 14 12 11
6 5 5 4 3 4 3 1 1 2 4 4 4 2 7 6 2 4 8 11 12 12 12 10 9 9 8 7 7 6 5 5 5 5 4 3 5 6 6 6 6 8 10 9 9 9 9 9 8 8 8 8 7 6 5 5 4 3 5 7 7 5 4 3 2 2 4 6 7 8 9 8 9 12 13 13 11 10 8 6 7 7 6 6 7 9 10 10 11 12 13 13 14 14 14 12 11
Wind_Direction
199 205 202 215 268 307 322 250 148 3 78 84 37 9 269 247 234 50 14 354 19 251 254 307 264 219 230 176 154 145 80 139 147 141 198 276 145 151 153 157 159 158 159 160 160 158 156 161 165 171 177 177 174 173 172 168 165 166 168 172 175 178 183 187 188 185 183 184 185 178 171 182 199 203 215 221 216 223 228 234 237 244 250 252 253 253 254 256 256 255 256 256 257 257 257 258 258
191 193 190 196 269 324 290 181 93 13 55 72 341 311 260 324 329 248 285 237 217 261 300 304 282 193 210 74 109 90 63 43 75 129 86 129 137 147 154 157 160 159 160 161 162 161 161 163 166 172 178 180 177 174 174 171 168 169 171 175 179 183 189 193 194 192 192 194 192 184 184 204 224 233 246 245 238 241 245 247 247 251 255 256 257 256 256 257 256 254 256 257 259 260 260 261 260
185 185 180 182 276 280 218 38 92 61 69 98 291 267 37 13 266 266 255 245 251 273 292 287 289 204 57 37 53 88 99 44 73 84 109 137 140 151 157 158 161 161 161 162 163 162 164 166 169 175 177 179 179 175 174 173 172 173 175 180 184 190 196 197 198 200 200 201 198 194 209 227 244 255 262 261 254 252 256 257 256 258 260 262 262 262 260 259 257 256 259 260 262 262 261 262 262
168 173 169 155 334 335 64 41 111 109 99 144 234 272 106 214 282 312 280 266 275 279 278 312 62 340 73 71 56 92 67 58 92 91 133 150 159 158 157 159 161 162 163 163 163 164 167 170 173 177 180 180 179 175 175 175 175 177 180 185 190 197 201 202 204 206 208 210 207 207 222 237 251 259 262 262 260 262 265 265 264 265 266 268 269 268 265 266 264 263 265 264 263 263 263 263 264
153 153 161 152 335 332 78 77 91 97 118 168 138 296 358 322 331 326 295 289 295 290 246 127 97 45 80 86 86 92 62 96 102 110 133 148 163 157 157 161 162 163 164 165 166 168 170 172 176 179 180 179 179 177 177 178 179 182 186 191 196 203 207 209 211 213 214 218 224 226 236 245 253 260 261 259 259 263 266 269 270 269 270 271 273 272 271 270 269 268 268 268 268 266 266 265 266
147 137 122 91 192 230 72 78 36 71 68 359 105 325 340 360 343 318 304 296 285 286 248 91 116 107 81 55 76 120 173 124 101 123 134 144 160 158 158 161 162 163 165 168 169 171 171 173 177 178 178 178 180 179 179 181 184 188 192 198 203 210 215 220 223 223 221 225 236 242 250 253 259 261 262 262 262 264 265 268 271 273 271 271 274 275 274 271 269 269 270 271 271 270 269 270 269
144 130 61 55 34 223 71 87 45 51 24 7 61 4 359 356 334 328 320 319 7 346 23 19 263 102 64 338 60 41 114 117 111 136 148 151 160 159 160 162 163 165 167 172 171 172 174 174 176 179 179 179 182 182 184 186 190 195 199 205 211 218 222 228 233 236 236 239 247 255 262 262 264 265 266 268 270 272 272 273 275 277 277 275 276 278 279 277 275 273 274 275 274 274 272 271 271
133 105 346 75 17 30 72 87 47 21 24 21 2 348 16 9 338 338 331 14 42 337 1 326 342 84 11 356 59 17 79 114 125 139 149 152 159 160 162 164 165 167 170 174 173 175 176 175 178 183 184 182 185 185 188 191 196 201 206 213 219 225 229 234 240 245 251 255 256 259 264 266 267 268 269 271 274 278 279 280 279 281 282 283 283 283 283 282 281 279 279 279 278 277 272 268 267
93 32 327 83 34 34 56 68 44 25 14 4 332 337 8 358 333 335 340 20 36 333 352 308 348 92 29 24 59 346 73 118 131 138 149 155 161 163 165 168 169 171 173 176 176 177 176 177 183 187 189 190 191 191 194 198 203 209 215 221 227 233 236 240 246 249 253 259 263 263 265 269 270 271 273 276 278 280 283 283 282 282 282 284 286 285 284 283 283 282 281 280 279 277 274 273 271
35 18 110 80 53 48 39 62 48 40 330 288 303 327 356 339 333 338 358 30 11 27 19 22 63 95 123 50 25 332 106 128 131 138 152 159 165 168 170 172 175 175 176 178 177 180 178 178 186 189 192 195 198 200 205 209 213 218 223 228 234 241 243 246 250 252 253 256 261 265 269 271 272 275 277 281 283 284 285 284 283 282 284 286 286 286 285 284 283 283 282 281 279 276 276 277 276
17 339 107 71 45 52 54 71 61 34 280 272 292 346 3 325 328 342 22 40 344 59 25 40 70 99 102 60 348 102 129 136 135 142 155 162 168 173 174 176 180 181 181 180 179 184 183 181 187 193 198 199 203 206 210 218 220 223 229 233 239 245 249 249 250 252 252 255 258 262 268 270 273 277 281 285 286 286 287 287 287 287 291 292 289 286 284 282 281 282 281 281 280 278 277 277 277
33 316 40 71 36 39 78 85 108 181 276 298 334 352 353 321 352 5 16 8 344 42 352 360 116 141 70 45 327 120 132 140 143 149 158 164 170 176 179 182 185 188 188 187 186 188 189 188 189 196 204 205 208 210 213 221 226 231 234 238 243 248 253 253 253 251 250 255 257 260 266 270 274 278 282 285 285 287 289 289 291 294 296 293 289 287 285 282 280 280 280 280 281 280 281 280 280
50 322 40 62 12 32 79 86 140 160 293 319 308 306 329 349 40 10 346 355 15 46 16 3 115 100 71 43 359 138 152 153 151 154 160 164 172 178 183 188 191 196 197 196 196 195 197 198 197 200 204 209 215 215 218 223 229 236 239 244 246 251 254 254 255 253 253 256 259 264 268 273 279 283 285 285 285 288 290 291 294 297 296 292 290 289 287 287 287 284 283 282 282 282 284 283 279
96 338 72 70 5 13 7 69 148 132 59 295 269 290 315 19 84 340 8 36 39 68 352 358 111 90 89 121 82 214 186 164 159 160 163 164 173 180 187 192 196 201 204 205 205 206 207 208 209 208 206 209 216 219 220 225 232 237 242 246 247 250 252 255 256 256 258 260 265 270 274 280 285 288 288 286 287 289 291 294 296 297 296 291 290 292 292 291 291 289 288 288 286 286 287 285 279
165 58 85 88 23 14 334 76 199 110 98 276 241 290 315 352 92 19 80 71 45 205 248 174 129 85 147 165 191 217 183 168 163 161 162 164 173 182 188 193 199 204 208 210 211 213 214 216 218 217 216 214 215 220 222 225 231 237 242 246 248 250 252 255 257 259 263 268 272 275 279 285 289 290 290 290 292 294 295 296 296 297 297 294 294 297 297 293 291 291 293 291 288 289 289 287 284
153 86 74 62 31 33 322 224 322 100 148 247 207 309 331 333 12 54 214 134 4 299 16 143 194 107 159 173 203 190 172 167 165 162 160 163 170 178 187 194 201 206 210 213 214 217 219 221 222 223 224 223 222 225 229 232 235 238 241 246 250 251 253 256 260 264 269 273 275 278 284 287 289 291 292 294 296 298 301 299 297 301 304 305 308 306 303 298 296 296 294 290 288 290 289 288 286
95 68 62 48 66 157 187 183 186 135 176 222 198 49 36 336 328 306 194 120 324 321 38 139 304 131 163 193 188 170 164 165 165 162 158 162 166 171 184 193 200 207 212 215 217 219 221 223 226 227 228 229 230 233 238 242 243 243 244 248 251 252 254 258 262 267 270 274 276 279 283 285 288 291 294 297 299 301 302 299 299 309 313 309 308 303 299 296 294 294 290 288 290 292 290 288 286
71 76 68 52 167 204 196 188 200 158 158 189 169 118 117 11 306 291 65 32 350 34 28 43 25 41 164 172 160 159 162 164 166 163 158 162 165 169 182 193 200 207 212 217 220 222 224 226 228 230 231 232 234 238 242 246 249 248 248 251 253 255 257 259 262 266 270 275 278 281 283 286 290 293 296 299 300 301 302 305 307 310 307 299 295 291 289 288 289 292 291 292 294 293 291 287 284
107 107 70 269 201 207 218 179 178 192 154 134 106 197 163 120 274 294 85 360 36 89 32 62 70 37 99 138 149 158 164 165 170 168 163 167 172 177 185 195 203 211 215 218 222 224 227 229 231 232 234 235 236 239 243 247 250 249 251 252 253 255 258 261 264 267 271 277 282 286 289 291 294 295 298 300 300 300 307 315 313 303 297 295 294 292 290 290 292 294 296 299 299 297 293 290 287
138 104 21 263 202 191 258 174 169 193 148 140 161 201 305 267 234 326 151 82 65 128 157 125 128 148 139 142 150 160 167 170 176 175 174 178 181 184 188 197 205 213 218 221 225 226 229 232 234 236 237 237 237 241 244 246 249 249 248 247 249 252 257 261 265 269 274 280 285 289 292 294 296 297 300 303 302 304 311 315 309 304 303 304 304 301 299 298 299 299 299 301 304 304 300 298 296
116 130 214 219 166 112 199 191 161 122 124 140 151 75 315 268 175 31 135 90 13 229 215 174 161 164 153 153 159 166 172 175 181 183 183 186 189 193 197 203 209 216 220 224 228 230 231 234 236 237 238 238 239 242 244 246 247 246 240 239 243 248 254 260 264 271 276 280 285 289 292 295 297 299 302 303 305 306 307 308 311 314 314 315 315 310 307 307 306 307 307 307 310 312 308 305 304
97 173 183 171 142 118 183 161 128 121 98 113 117 155 264 292 45 70 127 131 229 234 216 186 163 160 155 157 163 168 175 178 183 186 188 196 200 201 206 212 216 221 223 226 230 232 233 235 235 236 236 237 240 242 245 247 245 239 234 236 241 245 252 258 264 268 274 280 286 291 293 294 297 301 301 301 303 301 301 310 318 321 322 322 321 315 313 313 311 311 312 312 316 316 313 310 309
85 339 91 123 111 123 159 125 131 127 112 166 190 226 287 29 43 82 137 187 243 273 178 152 146 154 152 152 160 168 180 184 186 189 193 201 207 210 212 215 220 222 224 228 230 231 233 234 232 232 233 234 237 240 244 245 241 236 235 240 243 247 251 257 264 269 276 284 287 289 290 292 296 298 298 298 301 302 308 318 323 326 327 325 323 320 318 316 313 312 312 315 319 318 317 316 313
101 26 105 125 85 111 138 124 137 126 136 209 229 327 354 53 64 7 329 272 290 333 51 120 124 134 143 150 162 172 180 185 192 195 198 204 210 215 218 221 224 222 224 227 230 230 231 233 231 230 231 232 234 237 241 242 238 235 237 242 244 248 253 258 264 272 279 281 282 283 287 292 292 293 295 298 305 314 321 326 328 330 332 332 332 331 329 326 322 317 315 319 322 320 321 320 317
136 124 151 130 84 101 108 100 118 118 131 260 52 22 332 36 320 329 298 297 313 354 60 112 121 123 140 157 164 169 176 186 196 196 202 210 213 219 229 235 231 223 225 227 229 231 232 233 233 232 231 232 234 235 238 240 238 237 238 241 245 250 256 262 269 274 273 269 271 275 281 286 285 289 296 305 314 324 329 330 333 338 345 348 350 352 347 342 337 329 325 327 329 328 327 324 322
182 129 124 117 86 97 108 97 104 118 114 68 97 360 324 301 312 302 259 273 315 35 82 114 125 136 146 158 167 167 172 185 191 192 201 209 213 222 233 239 234 225 228 229 228 234 237 236 237 237 235 236 237 237 239 241 242 240 239 242 248 254 260 269 273 269 261 259 266 268 271 277 283 291 303 315 322 327 332 335 344 354 1 4 5 6 3 358 353 348 346 345 346 344 338 332 329
126 107 93 98 95 87 105 106 102 102 31 121 134 298 317 330 360 282 272 272 120 103 116 114 133 161 162 163 174 170 175 181 178 179 188 200 210 217 222 228 228 224 226 228 229 236 241 240 242 242 240 240 240 242 242 244 249 245 242 246 250 257 267 272 266 255 250 255 261 258 262 275 284 295 310 322 325 329 336 345 358 4 7 8 7 8 10 9 5 2 0 1 0 358 354 348 340
99 101 78 67 80 81 97 106 130 240 327 137 122 92 320 356 21 227 275 290 128 141 184 158 164 206 202 183 185 184 188 185 177 169 169 191 203 203 204 203 209 217 222 227 234 242 247 247 249 250 250 247 241 243 243 241 246 247 248 255 260 267 270 265 252 244 247 246 246 247 257 272 283 300 315 324 325 330 344 359 4 4 4 3 2 3 9 11 9 7 5 6 7 7 6 2 355
87 91 82 42 41 65 174 144 149 186 245 172 127 42 312 311 231 245 297 325 115 132 172 176 192 220 230 218 216 230 220 177 177 176 177 191 199 200 202 198 202 205 193 200 277 265 260 257 253 252 256 254 246 246 248 246 246 246 249 258 267 270 261 248 240 239 241 236 232 233 251 279 294 307 308 312 328 337 1 9 5 2 358 357 1 5 9 9 8 8 8 7 7 11 13 12 10
74 64 79 51 15 337 213 150 127 155 212 168 127 6 277 258 244 267 324 53 106 126 187 185 200 213 224 223 228 261 294 167 169 169 180 191 205 209 200 192 177 82 73 90 195 225 239 250 246 243 246 252 251 247 249 250 247 244 243 250 259 254 239 235 235 235 238 235 226 227 265 298 304 274 185 295 334 360 17 13 5 2 360 2 8 9 10 9 5 3 7 10 10 13 15 16 17
81 69 39 65 44 300 251 145 134 145 188 140 98 16 267 273 269 268 332 66 115 161 231 212 201 204 218 223 226 265 300 329 348 96 99 196 205 204 200 187 115 80 89 156 198 208 214 211 218 238 241 243 244 244 245 245 243 239 234 236 236 228 225 230 233 236 235 227 220 239 282 302 212 180 167 299 25 44 23 14 6 4 9 13 14 9 7 9 7 1 359 7 14 14 16 19 20
62 95 328 350 162 280 299 166 161 155 150 144 106 46 269 284 288 283 48 65 106 163 222 326 208 206 243 271 248 268 297 316 306 268 207 171 198 197 199 153 96 105 143 172 188 205 216 230 259 271 263 251 240 239 242 237 229 218 214 218 219 220 225 231 236 234 219 208 219 251 281 235 176 168 160 96 75 56 25 13 6 13 21 18 13 8 6 6 9 7 3 7 12 13 16 21 21
350 125 241 252 191 271 317 204 187 155 113 190 163 202 276 300 311 314 39 67 86 140 187 353 347 323 325 310 290 296 303 299 285 262 247 198 197 198 192 125 112 166 182 145 158 217 231 241 267 264 234 236 221 216 222 215 205 200 204 212 216 226 235 239 238 221 207 205 224 249 217 173 166 163 136 85 76 50 25 19 21 33 27 16 9 7 10 9 8 13 16 18 17 14 14 19 22
307 195 227 245 198 197 265 263 207 157 126 170 180 225 259 278 312 317 20 80 89 122 177 325 344 338 339 312 291 294 285 276 272 264 267 265 231 211 180 133 138 198 192 149 162 219 248 234 223 215 198 199 190 182 187 194 199 201 206 212 219 233 239 236 224 209 208 213 215 191 162 160 159 155 108 83 68 40 30 31 41 42 25 16 12 11 15 17 15 20 30 35 30 25 19 16 18
214 192 205 253 214 181 214 249 196 166 142 145 155 236 265 279 298 295 323 92 113 156 201 208 237 268 284 286 272 267 271 266 263 271 278 274 252 231 184 133 137 222 218 191 212 229 253 240 227 219 204 213 210 189 174 203 221 218 216 220 225 232 226 216 208 200 208 220 190 159 157 155 151 133 99 84 62 40 35 37 42 37 24 18 17 16 20 22 23 31 43 49 47 43 36 21 17
193 199 171 175 196 221 220 228 189 161 139 154 176 218 271 290 291 261 280 116 135 212 243 255 251 246 255 262 263 256 259 259 267 284 289 277 251 228 204 144 148 194 195 192 230 242 251 242 247 239 221 229 221 200 197 219 228 228 228 228 223 212 203 208 202 189 192 200 175 158 157 149 140 118 97 78 54 38 35 42 48 42 33 28 27 27 27 26 26 35 50 55 53 50 44 34 32
169 193 177 173 190 238 234 211 187 147 129 222 197 212 274 288 283 269 257 138 164 239 257 264 252 249 247 244 256 251 252 264 280 294 298 279 233 207 206 160 145 146 182 219 224 238 248 240 241 234 222 218 200 199 210 214 219 222 224 222 212 200 201 203 193 178 176 178 167 154 150 141 129 117 103 71 52 45 42 54 69 58 44 38 38 38 35 29 29 36 52 57 52 50 45 38 37
165 183 186 184 202 235 248 151 162 140 109 272 179 191 268 280 273 268 210 165 247 248 249 259 246 240 240 238 252 252 257 288 296 296 318 51 183 179 183 167 147 147 178 221 282 292 286 250 235 222 212 208 196 198 199 200 203 203 204 203 196 195 199 196 185 173 164 163 160 147 142 130 117 117 104 72 63 58 52 64 78 64 51 45 45 44 40 34 32 35 46 56 56 54 49 42 41
178 183 153 177 217 223 329 114 141 127 72 264 178 173 266 284 268 249 204 189 236 236 222 240 243 241 248 240 248 261 271 285 273 260 46 101 147 164 166 169 159 161 172 184 273 259 231 221 226 218 210 207 198 197 195 193 191 188 192 190 184 186 192 188 172 165 159 152 148 143 139 120 108 116 104 80 71 62 53 64 81 69 57 50 48 47 44 40 36 36 41 50 58 58 53 48 46
171 176 137 193 224 165 172 185 145 106 70 172 150 114 292 303 315 279 235 204 226 240 230 243 240 234 251 248 242 258 271 282 273 236 228 173 161 166 165 176 186 181 180 176 181 196 200 198 201 202 202 194 186 190 192 190 183 180 177 172 176 180 180 170 156 160 158 146 143 146 137 114 107 114 102 85 73 57 47 61 85 74 62 55 49 48 48 44 40 38 40 45 52 55 52 49 47
195 184 163 194 206 157 136 153 131 44 18 116 103 37 317 321 343 297 299 316 266 286 292 294 276 249 264 272 259 247 249 263 260 241 237 223 210 207 200 206 224 240 228 190 174 179 181 181 186 189 185 178 178 175 166 165 163 163 155 151 160 156 146 152 152 155 154 146 148 148 132 114 114 113 103 91 73 50 44 70 91 76 65 60 52 48 49 47 42 40 41 45 51 53 54 55 53
239 207 200 193 171 123 106 116 102 39 350 286 99 58 294 316 315 264 295 339 299 331 336 291 287 294 291 279 278 264 246 240 231 231 234 234 236 232 233 239 245 281 314 155 160 159 163 178 186 184 178 175 181 172 159 153 138 141 146 147 154 150 147 156 160 155 154 155 154 145 128 120 120 114 105 94 70 50 59 91 95 76 66 62 55 49 48 45 41 42 43 47 53 54 57 60 55
342 231 195 157 124 116 122 126 108 87 262 285 82 125 265 316 302 260 280 318 293 320 318 283 281 286 271 253 261 258 231 205 195 224 230 237 257 250 251 266 289 7 39 116 171 162 168 182 184 188 190 189 197 194 184 180 153 138 140 148 159 164 161 161 162 158 155 156 152 140 128 125 127 117 106 93 70 71 90 100 90 72 64 61 56 50 47 42 38 39 45 51 54 52 55 57 52
265 263 138 124 120 128 137 128 105 155 220 330 22 106 115 305 278 273 260 233 294 306 287 281 277 264 260 251 248 223 201 191 182 209 233 243 245 248 280 7 19 48 102 158 164 166 174 176 184 209 219 221 246 251 229 214 161 135 142 153 154 167 167 159 160 159 156 155 149 137 130 131 130 118 109 96 85 99 100 91 77 65 61 59 56 52 48 44 37 36 45 56 57 54 55 57 55
280 309 101 108 110 111 118 109 80 33 52 329 307 83 73 272 276 317 34 184 277 279 256 258 258 250 252 257 254 204 185 192 190 205 232 245 242 250 327 31 46 88 142 158 138 155 166 154 183 226 250 258 277 287 273 184 156 142 152 159 153 159 162 159 159 160 159 160 153 140 137 138 131 120 116 105 102 112 99 79 70 62 61 61 59 56 51 48 43 41 50 61 62 59 58 57 57
196 104 88 82 77 81 81 86 71 27 34 274 258 153 108 278 280 323 53 206 248 248 243 246 245 246 244 251 258 201 159 180 205 220 250 256 255 270 336 38 56 108 156 149 126 141 154 162 201 193 181 195 304 291 255 167 162 164 155 156 155 153 156 159 160 161 164 165 161 150 143 144 134 121 120 112 115 121 101 78 72 67 66 67 64 57 52 53 53 54 59 65 65 63 61 58 56
139 105 83 75 54 50 54 56 65 38 331 271 248 167 129 301 281 232 187 213 206 190 222 246 245 246 236 235 243 203 166 175 202 218 264 265 259 256 255 88 83 224 181 117 123 136 138 158 170 150 126 98 92 145 174 161 154 151 135 143 151 152 157 163 164 164 165 165 164 155 148 151 141 119 116 112 125 128 109 93 85 78 73 69 64 55 56 59 58 58 62 67 67 65 62 57 55
108 95 92 88 26 16 25 3 30 74 264 270 260 168 127 180 263 241 225 231 195 167 187 209 219 227 223 217 217 199 183 181 184 189 237 283 104 189 223 178 119 169 156 128 134 136 142 160 166 154 133 118 120 141 158 158 152 141 135 141 152 158 164 169 170 171 169 166 164 157 154 160 157 140 121 108 134 139 123 116 105 89 76 66 60 55 59 61 57 56 62 70 72 69 63 55 53
75 95 94 85 29 19 12 322 323 227 246 242 218 160 133 233 246 243 243 237 216 198 189 191 199 206 207 208 203 191 183 181 178 186 211 274 175 200 213 204 187 190 168 160 157 150 156 172 175 163 149 148 156 160 159 163 164 155 150 154 160 166 173 177 180 180 176 173 170 165 166 172 181 190 194 130 149 151 138 143 126 92 75 64 58 56 59 59 55 55 62 72 77 74 69 62 60
139 125 115 113 97 73 285 277 285 266 266 250 223 199 260 281 257 227 246 241 217 204 191 190 190 188 193 198 188 173 184 191 179 182 196 225 231 218 213 205 201 208 194 181 176 172 180 190 184 176 169 168 172 170 167 169 171 167 164 169 174 177 185 193 194 193 190 186 183 180 179 185 199 215 237 227 169 154 130 136 131 90 73 66 59 57 60 61 57 58 66 75 79 78 74 70 67
210 167 113 134 148 146 195 217 211 250 275 291 261 219 190 243 246 239 259 259 204 167 153 162 157 160 168 169 174 175 190 196 176 186 209 229 236 229 219 210 202 203 201 194 191 192 201 205 193 194 196 185 180 176 177 170 170 177 179 180 186 191 199 202 199 201 203 199 198 199 190 192 215 228 242 244 198 174 142 135 127 93 79 71 63 61 63 65 62 66 76 81 80 77 72 71 69
268 359 84 134 178 142 136 180 184 206 272 290 251 231 217 214 268 310 326 25 112 118 119 125 123 132 143 162 205 207 200 191 175 200 228 237 241 237 224 214 208 207 205 202 202 204 210 210 199 207 217 206 195 193 194 164 167 189 193 189 192 194 195 201 200 205 211 209 205 203 188 194 219 225 243 243 192 178 161 148 127 95 86 73 67 68 69 74 74 78 85 84 80 74 69 69 68
169 77 163 209 171 118 108 177 277 69 71 273 254 270 294 319 335 344 37 62 76 101 124 136 142 149 158 189 216 223 218 195 180 209 229 236 240 236 225 218 219 216 210 207 208 208 212 214 208 213 222 216 209 216 224 180 163 187 194 193 190 182 179 193 201 209 215 212 197 176 168 181 189 192 199 149 157 161 156 147 122 93 84 70 66 72 76 81 82 83 85 81 77 72 67 67 65
123 183 205 183 101 89 102 108 6 39 253 282 292 253 291 334 307 319 49 86 107 120 132 137 146 161 179 204 216 223 227 207 194 218 237 249 250 243 232 231 231 222 215 212 210 211 213 215 215 216 220 219 216 219 211 180 169 186 194 193 184 174 172 178 190 209 213 203 178 155 159 165 158 150 141 133 142 151 148 137 113 91 77 64 67 75 77 80 81 84 83 76 70 65 62 64 61
141 183 169 123 128 200 108 124 134 105 225 288 308 290 265 218 227 235 174 177 173 153 144 151 167 183 191 203 217 227 234 230 225 229 242 247 246 246 238 234 231 217 213 215 210 212 215 214 215 217 219 219 214 208 181 166 165 173 184 185 177 173 173 174 186 194 176 169 160 154 160 161 148 135 137 140 146 149 144 130 108 83 66 62 70 73 74 78 82 85 80 70 62 55 55 59 57
79 118 114 86 139 166 160 152 153 144 170 256 308 329 276 230 216 184 186 190 173 162 169 176 185 191 191 196 208 218 219 219 227 231 236 233 235 241 237 229 222 210 208 211 209 211 214 215 215 212 215 217 215 211 196 186 174 159 169 176 176 176 175 180 190 163 126 142 158 163 167 167 155 140 141 148 151 148 139 126 101 72 61 64 69 73 79 85 89 86 77 66 58 53 53 54 53
125 145 175 181 64 141 158 107 110 127 141 188 257 312 272 252 217 183 186 185 176 173 175 182 190 190 190 197 202 209 210 210 222 230 232 235 234 236 236 231 219 207 203 205 208 210 209 214 217 214 217 220 222 221 214 211 200 173 175 175 176 181 184 192 199 172 137 145 155 161 168 171 160 147 150 152 150 142 131 116 91 69 65 71 76 84 90 93 93 86 76 68 61 56 54 51 49
154 177 190 177 139 126 115 14 304 111 126 169 161 229 270 260 224 217 195 180 182 178 170 174 186 185 187 198 204 206 204 205 216 225 226 236 237 231 231 229 212 202 200 200 207 210 208 213 217 218 222 225 229 234 226 221 214 194 183 178 179 184 187 186 172 152 151 149 151 154 161 167 157 151 154 153 147 137 120 98 75 63 66 83 92 96 98 97 93 85 76 69 61 56 52 49 48